Gulkana, AK

3:57 AM AKDT on April 19, 2018 (GMT -0800)
Gulkana

Weather History for PAGK - March, 2015

Change the Weather History Date:

Sunday, March 29, 2015

  Actual Average Record
Temperature  
Mean Temperature 32 °F -  
Max Temperature 44 °F 34 °F 48 °F (2016)
Min Temperature 21 °F 11 °F -16 °F (1952)
Degree Days  
Heating Degree Days 32    
Moisture  
Dew Point 19 °F    
Average Humidity 55    
Maximum Humidity 74    
Minimum Humidity 30    
Precipitation  
Precipitation 0.00 in - - ()
Sea Level Pressure  
Sea Level Pressure 29.52 in    
Wind  
Wind Speed 7 mph (SSE)    
Max Wind Speed 22 mph    
Max Gust Speed 31 mph    
Visibility 10 miles    
Events      
Averages and records for this station are not official NWS values.
T = Trace of Precipitation, MM = Missing Value Source: NWS Daily Summary

Daily Weather History Graph

Daily Weather History Graph

Search for Another Location

Airport or City:

Astronomy

Mar. 29, 2015 Rise Set
Actual Time 7:13 AM AKDT 8:21 PM AKDT
Civil Twilight 6:27 AM AKDT 9:07 PM AKDT
Nautical Twilight 5:31 AM AKDT 10:04 PM AKDT
Astronomical Twilight 4:23 AM AKDT 11:13 PM AKDT
Moon 2:02 PM AKDT (3/29) 5:31 AM AKDT (3/29)
Length of Visible Light 14h 39m
Length of Day
13h 07m
Waxing Gibbous, 74% of the Moon is Illuminated
Mar 29
Waxing Gibbous
Apr 4
Full
Apr 11
Last Quarter
Apr 18
New
Apr 25
First Quarter

Hourly Weather History & Observations

Time (AKDT) Temp. Windchill Dew Point Humidity Pressure Visibility Wind Dir Wind Speed Gust Speed Precip Events Conditions
12:53 AM 28.9 °F 23.9 °F 15.1 °F 56% 29.45 in 10.0 mi West 4.6 mph - N/A   Overcast
1:53 AM 26.1 °F 19.4 °F 16.0 °F 66% 29.47 in 10.0 mi South 5.8 mph - N/A   Partly Cloudy
2:53 AM 27.0 °F 20.5 °F 17.1 °F 66% 29.47 in 10.0 mi South 5.8 mph - N/A   Overcast
3:53 AM 28.0 °F - 15.1 °F 58% 29.46 in 10.0 mi Calm Calm - N/A   Overcast
4:53 AM 27.0 °F 23.0 °F 14.0 °F 58% 29.44 in 10.0 mi WNW 3.5 mph - N/A   Partly Cloudy
5:53 AM 24.1 °F 17.0 °F 12.9 °F 62% 29.46 in 10.0 mi North 5.8 mph - N/A   Clear
6:53 AM 21.0 °F - 14.0 °F 74% 29.48 in 10.0 mi Calm Calm - N/A   Mostly Cloudy
7:53 AM 21.9 °F - 14.0 °F 72% 29.48 in 10.0 mi Calm Calm - N/A   Scattered Clouds
8:53 AM 25.0 °F - 15.1 °F 66% 29.49 in 10.0 mi Calm Calm - N/A   Overcast
9:53 AM 27.0 °F - 17.1 °F 66% 29.51 in 10.0 mi Calm Calm - N/A   Overcast
10:53 AM 30.9 °F 23.5 °F 19.0 °F 61% 29.52 in 10.0 mi SSE 8.1 mph - N/A   Scattered Clouds
11:53 AM 30.9 °F 25.2 °F 18.0 °F 59% 29.52 in 10.0 mi ESE 5.8 mph - N/A   Scattered Clouds
12:53 PM 36.0 °F 31.1 °F 21.0 °F 55% 29.51 in 10.0 mi SE 5.8 mph - N/A   Partly Cloudy
1:53 PM 39.9 °F 32.1 °F 23.0 °F 51% 29.52 in 10.0 mi SSE 13.8 mph - N/A   Clear
2:53 PM 43.0 °F 36.0 °F 23.0 °F 45% 29.51 in 10.0 mi SSE 13.8 mph 24.2 mph N/A   Clear
3:53 PM 43.0 °F 34.8 °F 21.9 °F 43% 29.52 in 10.0 mi South 18.4 mph - N/A   Clear
4:53 PM 43.0 °F 34.0 °F 19.9 °F 40% 29.53 in 10.0 mi SSE 21.9 mph 31.1 mph N/A   Clear
5:53 PM 42.1 °F 34.2 °F 21.9 °F 45% 29.54 in 10.0 mi South 16.1 mph 24.2 mph N/A   Scattered Clouds
6:53 PM 41.0 °F 33.1 °F 21.0 °F 45% 29.56 in 10.0 mi SSE 15.0 mph - N/A   Scattered Clouds
7:53 PM 39.9 °F 32.1 °F 19.0 °F 43% 29.59 in 10.0 mi SSE 13.8 mph - N/A   Clear
8:53 PM 37.9 °F 29.6 °F 19.9 °F 48% 29.60 in 10.0 mi SSE 13.8 mph - N/A   Overcast
9:53 PM 37.0 °F 28.9 °F 23.0 °F 57% 29.62 in 10.0 mi SSE 12.7 mph - N/A   Mostly Cloudy
10:53 PM 36.0 °F 27.1 °F 23.0 °F 59% 29.62 in 10.0 mi SSE 13.8 mph - N/A   Partly Cloudy
11:53 PM 35.1 °F 26.4 °F 23.0 °F 61% 29.65 in 10.0 mi SSE 12.7 mph - N/A   Mostly Cloudy